This is the latest recevied weather packets stored in our database for station/object W5COG. If no packets are shown the sender has not sent any weather packets the latest 10 day(s).
| Time | Temp. | Humidity | Pressure | Rain* | Wind** | Luminosity | Snow |
|---|---|---|---|---|---|---|---|
| 1777653627 | 17.22° C | 45% | 1019.6 hPa | 0 mm | - | 748 W/m² | - |
| 1777653327 | 17.22° C | 46% | 1019.6 hPa | 0 mm | - | 676 W/m² | - |
| 1777652427 | 17.22° C | 46% | 1019.6 hPa | 0 mm | - | 645 W/m² | - |
| 1777652127 | 17.22° C | 47% | 1019.4 hPa | 0 mm | - | 638 W/m² | - |
| 1777651826 | 17.22° C | 46% | 1019.5 hPa | 0 mm | - | 655 W/m² | - |
| 1777651526 | 17.22° C | 47% | 1019.4 hPa | 0 mm | - | 732 W/m² | - |
| 1777651227 | 17.22° C | 47% | 1019.6 hPa | 0 mm | - | 759 W/m² | - |
| 1777650927 | 16.67° C | 47% | 1019.7 hPa | 0 mm | - | 748 W/m² | - |
| 1777650627 | 16.67° C | 47% | 1019.7 hPa | 0 mm | - | 733 W/m² | - |
| 1777650326 | 16.67° C | 47% | 1019.6 hPa | 0 mm | - | 720 W/m² | - |
| 1777650027 | 16.67° C | 48% | 1019.5 hPa | 0 mm | - | 707 W/m² | - |
| 1777649727 | 16.67° C | 47% | 1019.4 hPa | 0 mm | - | 694 W/m² | - |
| 1777648827 | 16.11° C | 49% | 1019.4 hPa | 0 mm | - | 651 W/m² | - |
| 1777648526 | 16.11° C | 47% | 1019.4 hPa | 0 mm | - | 636 W/m² | - |
| 1777648227 | 16.11° C | 51% | 1019.4 hPa | 0 mm | - | 629 W/m² | - |
| 1777647927 | 15.56° C | 53% | 1019.3 hPa | 0 mm | - | 615 W/m² | - |
| 1777647627 | 15.56° C | 51% | 1019.3 hPa | 0 mm | - | 598 W/m² | - |
| 1777647327 | 15° C | 53% | 1019.3 hPa | 0 mm | - | 589 W/m² | - |
| 1777646427 | 14.44° C | 60% | 1019.1 hPa | 0 mm | - | 563 W/m² | - |
| 1777646127 | 14.44° C | 61% | 1019.1 hPa | 0 mm | - | 530 W/m² | - |
| 1777645827 | 14.44° C | 64% | 1019 hPa | 0 mm | - | 468 W/m² | - |
| 1777645527 | 13.89° C | 64% | 1018.9 hPa | 0 mm | - | 470 W/m² | - |
| 1777645227 | 13.89° C | 63% | 1018.9 hPa | 0 mm | - | 447 W/m² | - |
| 1777644927 | 13.89° C | 64% | 1018.9 hPa | 0 mm | - | 366 W/m² | - |
| 1777644627 | 13.89° C | 67% | 1018.9 hPa | 0 mm | - | 453 W/m² | - |
* Rain latest hour (hover to see other rain measurements)
** Current wind speed in m/s (hover to see current wind gust speed)